GW3435 Weather Reports


time (UTC)temp
C
wind
direction
speed
KPH
gust
KPH
rain 1hr
cm
rain 24hr
cm
rain mn
cm
humidity
%
barometer
mb
20260507131030 18 268 3.2 6.4 0.00 0.03 0.03 70 1015.8
20260507130026 18 298 4.8 9.7 0.00 0.03 0.03 71 1016.0
20260507125022 18 288 4.8 9.7 0.00 0.03 0.03 72 1016.2
20260507124018 18 304 1.6 3.2 0.03 0.03 0.03 72 1016.4
20260507123034 18 267 1.6 4.8 0.03 0.03 0.03 74 1016.6
20260507122029 17 253 1.6 6.4 0.03 0.03 0.03 75 1016.7
20260507121024 17 255 1.6 6.4 0.03 0.03 0.03 78 1016.7
20260507120032 18 41 0.0 3.2 0.03 0.03 0.03 79 1016.7
20260507115035 18 241 0.0 1.6 0.03 0.03 0.03 74 1016.7
20260507114031 18 277 1.6 6.4 0.00 0.00 0.00 72 1016.7
20260507113059 18 270 0.0 3.2 0.00 0.00 0.00 71 1016.8
20260507112023 19 332 1.6 4.8 0.00 0.00 0.00 70 1016.8
20260507111018 18 315 0.0 1.6 0.00 0.00 0.00 70 1016.9
20260507110033 18 347 1.6 3.2 0.00 0.00 0.00 74 1016.9
20260507105027 18 37 1.6 3.2 0.00 0.00 0.00 74 1016.8
20260507104035 18 40 0.0 1.6 0.00 0.00 0.00 73 1016.7
20260507103036 18 15 0.0 3.2 0.00 0.00 0.00 73 1016.5
20260507102021 18 62 1.6 1.6 0.00 0.00 0.00 72 1016.6
20260507101520 18 46 0.0 3.2 0.00 0.00 0.00 72 1016.6
20260507100534 17 52 3.2 4.8 0.00 0.00 0.00 71 1016.4
20260507095530 17 39 0.0 3.2 0.00 0.00 0.00 70 1016.4
20260507094526 17 52 3.2 4.8 0.00 0.00 0.00 71 1016.3
20260507093521 18 59 1.6 4.8 0.00 0.00 0.00 72 1016.3
20260507092516 18 42 3.2 4.8 0.00 0.00 0.00 70 1016.3
20260507091552 18 45 3.2 9.7 0.00 0.00 0.00 65 1016.0
20260507090527 18 50 4.8 12.9 0.00 0.00 0.00 65 1016.0
20260507085542 18 48 6.4 12.9 0.00 0.00 0.00 68 1016.0
20260507084538 18 45 3.2 9.7 0.00 0.00 0.00 67 1015.9
20260507083534 18 41 8.0 12.9 0.00 0.00 0.00 70 1015.7
20260507082531 17 34 12.9 17.7 0.00 0.00 0.00 71 1015.7
20260507081545 17 43 8.0 14.5 0.00 0.00 0.00 70 1015.6
20260507080520 17 46 11.3 17.7 0.00 0.00 0.00 72 1015.6
20260507075536 18 48 11.3 16.1 0.00 0.00 0.00 70 1015.5
20260507074551 17 47 8.0 14.5 0.00 0.00 0.00 73 1015.6
20260507073526 17 38 11.3 17.7 0.00 0.00 0.00 73 1015.6
20260507072521 18 55 8.0 14.5 0.00 0.00 0.00 72 1015.5
20260507071535 17 65 4.8 9.7 0.00 0.00 0.00 74 1015.4
20260507071018 17 38 9.7 14.5 0.00 0.00 0.00 74 1015.5
20260507070026 16 41 9.7 14.5 0.00 0.00 0.00 77 1015.5
20260507065021 16 50 6.4 12.9 0.00 0.00 0.00 77 1015.7
20260507064017 16 43 3.2 6.4 0.00 0.00 0.00 75 1015.7
20260507063033 16 35 1.6 9.7 0.00 0.00 0.00 75 1015.5
20260507062029 16 26 1.6 6.4 0.00 0.00 0.00 75 1015.5
20260507061024 16 46 1.6 4.8 0.00 0.00 0.00 76 1015.4
20260507060020 16 46 3.2 6.4 0.00 0.00 0.00 77 1015.5
20260507055016 16 42 3.2 4.8 0.00 0.00 0.00 76 1015.4
20260507054032 16 21 0.0 1.6 0.00 0.00 0.00 76 1015.5
20260507053048 15 272 0.0 1.6 0.00 0.00 0.00 79 1015.4
20260507052044 16 232 0.0 0.0 0.00 0.00 0.00 81 1015.4
20260507051019 15 230 0.0 0.0 0.00 0.00 0.00 85 1015.4
20260507050056 15 214 0.0 0.0 0.00 0.00 0.00 89 1015.4
20260507045032 13 214 0.0 0.0 0.00 0.00 0.00 90 1015.3
20260507044047 13 214 0.0 0.0 0.00 0.00 0.00 91 1015.1
20260507043023 12 214 0.0 0.0 0.00 0.00 0.00 91 1015.0
20260507042019 12 209 0.0 0.0 0.00 0.00 0.00 91 1015.1
20260507041035 12 209 0.0 0.0 0.00 0.00 0.00 91 1015.1
20260507040030 12 210 0.0 0.0 0.00 0.00 0.00 92 1014.9
20260507035026 11 208 0.0 0.0 0.00 0.00 0.00 92 1014.8
20260507034021 11 208 0.0 0.0 0.00 0.00 0.00 92 1014.7
20260507033017 11 209 0.0 0.0 0.00 0.00 0.00 92 1014.6
20260507032033 11 208 0.0 0.0 0.00 0.00 0.00 92 1014.4
20260507031029 11 242 0.0 0.0 0.00 0.00 0.00 92 1014.6
20260507030025 11 243 0.0 0.0 0.00 0.00 0.00 92 1014.5
20260507025021 11 133 0.0 0.0 0.00 0.00 0.00 91 1014.3
20260507024017 11 133 0.0 0.0 0.00 0.00 0.00 91 1014.1
20260507023033 11 133 0.0 0.0 0.00 0.00 0.00 91 1014.2
20260507022029 11 133 0.0 0.0 0.00 0.00 0.00 91 1014.1
20260507021024 11 133 0.0 0.0 0.00 0.00 0.00 91 1014.1
20260507020020 12 133 0.0 0.0 0.00 0.00 0.00 91 1013.9
20260507015036 12 133 0.0 0.0 0.00 0.00 0.00 91 1013.9
20260507014032 12 133 0.0 0.0 0.00 0.00 0.00 91 1013.9
20260507013028 12 133 0.0 0.0 0.00 0.00 0.00 90 1013.8
20260507012024 12 133 0.0 0.0 0.00 0.00 0.00 90 1013.9
20260507011020 12 133 0.0 0.0 0.00 0.00 0.00 90 1013.8
20260507010036 12 133 0.0 1.6 0.00 0.00 0.00 91 1013.9
20260507005032 12 188 0.0 0.0 0.00 0.00 0.00 91 1014.0
20260507004027 12 187 0.0 0.0 0.00 0.00 0.00 91 1014.0
20260507003023 12 187 0.0 0.0 0.00 0.00 0.00 90 1014.0
20260507002019 12 188 0.0 0.0 0.00 0.00 0.00 90 1014.1
20260507001035 12 188 0.0 0.0 0.00 0.00 0.00 90 1014.1
20260507000052 12 188 0.0 0.0 0.00 0.00 0.00 90 1014.2
20260506235027 12 188 0.0 0.0 0.00 0.00 0.00 90 1014.4
20260506234023 12 214 0.0 0.0 0.00 0.00 0.00 90 1014.3
20260506233019 12 214 0.0 0.0 0.00 0.00 0.00 90 1014.4
20260506232054 12 216 0.0 0.0 0.00 0.00 0.00 89 1014.5
20260506231525 12 216 0.0 0.0 0.00 0.00 0.00 89 1014.5
20260506230519 12 216 0.0 0.0 0.00 0.00 0.00 89 1014.5
20260506225535 12 216 0.0 0.0 0.00 0.00 0.00 89 1014.5
20260506224531 12 217 0.0 0.0 0.00 0.00 0.00 89 1014.6
20260506223527 13 256 0.0 0.0 0.00 0.00 0.00 89 1014.6
20260506222543 13 256 0.0 0.0 0.00 0.00 0.00 90 1014.5
20260506221559 13 256 0.0 0.0 0.00 0.00 0.00 89 1014.6
20260506220533 13 256 0.0 0.0 0.00 0.00 0.00 89 1014.6
20260506215549 13 256 0.0 0.0 0.00 0.00 0.00 89 1014.6
20260506214524 13 256 0.0 0.0 0.00 0.00 0.00 88 1014.6
20260506213520 13 256 0.0 0.0 0.00 0.00 0.00 88 1014.4
20260506212531 13 256 0.0 0.0 0.00 0.00 0.00 88 1014.5
20260506211526 13 256 0.0 0.0 0.00 0.00 0.00 88 1014.5
20260506210522 13 256 0.0 0.0 0.00 0.00 0.00 88 1014.5
20260506205518 13 256 0.0 0.0 0.00 0.00 0.00 88 1014.5
20260506204534 13 256 0.0 0.0 0.00 0.00 0.00 88 1014.5
20260506203529 13 256 0.0 0.0 0.00 0.00 0.00 87 1014.5
20260506202525 13 256 0.0 0.0 0.00 0.00 0.00 88 1014.4
20260506201520 13 256 0.0 0.0 0.00 0.00 0.00 88 1014.3
20260506200516 13 256 0.0 0.0 0.00 0.00 0.00 87 1014.3
20260506195553 13 256 0.0 0.0 0.00 0.00 0.00 87 1014.2
20260506194528 13 256 0.0 0.0 0.00 0.00 0.00 87 1014.2
20260506193604 14 256 0.0 0.0 0.00 0.00 0.00 87 1014.1
20260506192600 14 256 0.0 0.0 0.00 0.00 0.00 86 1014.1
20260506191555 14 256 0.0 0.0 0.00 0.00 0.00 86 1014.1
20260506190531 14 256 0.0 0.0 0.00 0.00 0.00 85 1014.1
20260506185547 15 256 0.0 0.0 0.00 0.00 0.00 86 1014.0
20260506184523 15 256 0.0 0.0 0.00 0.00 0.00 85 1013.9
20260506183559 15 256 0.0 0.0 0.00 0.00 0.00 85 1013.8
20260506182535 15 256 0.0 0.0 0.00 0.00 0.00 84 1013.7
20260506181530 15 257 0.0 0.0 0.00 0.00 0.00 84 1013.6
20260506180545 15 256 0.0 0.0 0.00 0.00 0.00 83 1013.3
20260506175542 16 257 0.0 0.0 0.00 0.00 0.00 83 1013.3
20260506174517 16 257 0.0 0.0 0.00 0.00 0.00 83 1013.2
20260506173533 17 257 0.0 0.0 0.00 0.00 0.00 82 1013.3
20260506172528 17 257 0.0 0.0 0.00 0.00 0.00 81 1013.1
20260506171524 18 300 1.6 3.2 0.00 0.00 0.00 80 1013.1
20260506170520 18 333 0.0 4.8 0.00 0.00 0.00 79 1013.0
20260506165536 18 13 1.6 4.8 0.00 0.00 0.00 78 1013.0
20260506164531 18 22 1.6 6.4 0.00 0.00 0.00 77 1013.0
20260506163527 19 27 1.6 4.8 0.00 0.00 0.00 76 1013.0
20260506162523 19 22 3.2 4.8 0.00 0.00 0.00 75 1013.0
20260506161518 18 35 3.2 6.4 0.00 0.00 0.00 75 1012.7
20260506160535 19 34 1.6 6.4 0.00 0.00 0.00 73 1012.9
20260506155530 20 24 3.2 6.4 0.00 0.00 0.00 71 1012.9
20260506154526 19 46 1.6 6.4 0.00 0.00 0.00 70 1013.0
20260506153542 20 21 1.6 4.8 0.00 0.00 0.00 68 1012.9
20260506152558 18 34 4.8 9.7 0.00 0.00 0.00 70 1013.0
20260506151534 19 34 4.8 11.3 0.00 0.00 0.00 68 1013.0
20260506150529 18 47 4.8 9.7 0.00 0.00 0.00 69 1013.0
20260506145525 18 36 6.4 11.3 0.00 0.00 0.00 69 1013.0
20260506144541 18 41 4.8 6.4 0.00 0.00 0.00 70 1013.0
20260506143521 18 43 4.8 9.7 0.00 0.00 0.00 71 1013.0
20260506142542 18 45 4.8 9.7 0.00 0.00 0.00 70 1012.9
20260506141520 19 41 3.2 6.4 0.00 0.00 0.00 70 1013.1
20260506140535 19 47 3.2 6.4 0.00 0.00 0.00 69 1013.1
20260506135530 18 48 4.8 9.7 0.00 0.00 0.00 71 1013.0
20260506134525 18 42 6.4 11.3 0.00 0.00 0.00 70 1013.0
20260506133521 18 47 4.8 12.9 0.00 0.00 0.00 70 1013.1
20260506132517 19 43 4.8 9.7 0.00 0.00 0.00 68 1013.2